Time,TemperatureF,DewpointF,PressureIn,WindDirection,WindDirectionDegrees,WindSpeedMPH,WindSpeedGustMPH,Humidity,HourlyPrecipIn,Conditions,Clouds,dailyrainin,SoftwareType,DateUTC
2013-07-16 07:19:00,58.3,52.5,29.90,North,0,0.0,0.0,81,0.00,,---,0.00,VWS V14.00,2013-07-16 12:19:00,
2013-07-16 07:24:00,59.0,52.8,29.92,NE,54,0.0,0.0,80,0.00,,---,0.00,VWS V14.00,2013-07-16 12:24:00,
2013-07-16 07:29:00,59.0,52.8,29.92,NE,54,0.0,0.0,80,0.00,,---,0.00,VWS V14.00,2013-07-16 12:29:00,
2013-07-16 07:34:00,59.0,52.8,29.92,NE,54,0.0,0.0,80,0.00,,---,0.00,VWS V14.00,2013-07-16 12:34:00,
2013-07-16 07:39:00,59.0,52.8,29.92,NE,54,0.0,0.0,80,0.00,,---,0.00,VWS V14.00,2013-07-16 12:39:00,
2013-07-16 07:40:00,59.0,52.8,29.92,NE,54,0.0,0.0,80,0.00,,---,0.00,VWS V14.00,2013-07-16 12:40:00,
2013-07-16 07:44:00,59.0,52.8,29.92,NE,54,0.0,0.0,80,0.00,,---,0.00,VWS V14.00,2013-07-16 12:44:00,
2013-07-16 07:45:00,59.0,52.8,29.92,NE,54,0.0,0.0,80,0.00,,---,0.00,VWS V14.00,2013-07-16 12:45:00,
2013-07-16 07:49:00,59.2,53.0,29.92,NE,54,0.0,0.0,80,0.00,,---,0.00,VWS V14.00,2013-07-16 12:49:00,
2013-07-16 07:50:00,59.2,53.0,29.92,NE,54,0.0,0.0,80,0.00,,---,0.00,VWS V14.00,2013-07-16 12:50:00,
2013-07-16 07:54:00,59.2,52.7,29.92,NE,54,0.0,0.0,79,0.00,,---,0.00,VWS V14.00,2013-07-16 12:54:00,
2013-07-16 07:55:00,59.2,52.7,29.92,NE,54,0.0,0.0,79,0.00,,---,0.00,VWS V14.00,2013-07-16 12:55:00,
2013-07-16 07:59:00,59.2,53.0,29.92,NE,54,0.0,0.0,80,0.00,,---,0.00,VWS V14.00,2013-07-16 12:59:00,
2013-07-16 08:00:00,59.2,53.0,29.92,NE,54,0.0,0.0,80,0.00,,---,0.00,VWS V14.00,2013-07-16 13:00:00,
2013-07-16 08:04:00,59.3,53.1,29.92,NE,54,0.0,0.0,80,0.00,,---,0.00,VWS V14.00,2013-07-16 13:04:00,
2013-07-16 08:05:00,59.3,53.1,29.92,NE,54,0.0,0.0,80,0.00,,---,0.00,VWS V14.00,2013-07-16 13:05:00,
2013-07-16 08:09:00,59.5,53.0,29.92,NE,54,0.0,0.0,79,0.00,,---,0.00,VWS V14.00,2013-07-16 13:09:00,
2013-07-16 08:10:00,59.5,53.0,29.92,NE,54,0.0,0.0,79,0.00,,---,0.00,VWS V14.00,2013-07-16 13:10:00,
2013-07-16 08:15:00,59.6,53.1,29.92,NE,54,0.0,0.0,79,0.00,,---,0.00,VWS V14.00,2013-07-16 13:15:00,
2013-07-16 08:20:00,59.8,52.9,29.92,NE,54,0.0,0.0,78,0.00,,---,0.00,VWS V14.00,2013-07-16 13:20:00,
2013-07-16 08:21:00,59.9,53.0,29.92,NE,54,0.0,0.0,78,0.00,,---,0.00,VWS V14.00,2013-07-16 13:21:00,
2013-07-16 08:25:00,60.1,53.2,29.92,NE,54,0.0,0.0,78,0.00,,---,0.00,VWS V14.00,2013-07-16 13:25:00,
2013-07-16 08:26:00,60.1,53.2,29.92,NE,54,0.0,0.0,78,0.00,,---,0.00,VWS V14.00,2013-07-16 13:26:00,
2013-07-16 08:30:00,60.1,52.9,29.92,NE,54,0.0,0.0,77,0.00,,---,0.00,VWS V14.00,2013-07-16 13:30:00,
2013-07-16 08:31:00,60.2,53.0,29.92,NE,54,0.0,0.0,77,0.00,,---,0.00,VWS V14.00,2013-07-16 13:31:00,
2013-07-16 08:35:00,60.4,53.2,29.92,NE,54,0.0,0.0,77,0.00,,---,0.00,VWS V14.00,2013-07-16 13:35:00,
2013-07-16 08:36:00,60.4,53.2,29.92,NE,54,0.0,0.0,77,0.00,,---,0.00,VWS V14.00,2013-07-16 13:36:00,
2013-07-16 08:40:00,60.5,53.3,29.92,NE,54,0.0,0.0,77,0.00,,---,0.00,VWS V14.00,2013-07-16 13:40:00,
2013-07-16 08:41:00,60.5,53.3,29.92,NE,54,0.0,0.0,77,0.00,,---,0.00,VWS V14.00,2013-07-16 13:41:00,
2013-07-16 08:45:00,60.7,53.1,29.92,NE,54,0.0,0.0,76,0.00,,---,0.00,VWS V14.00,2013-07-16 13:45:00,
2013-07-16 08:46:00,60.7,53.1,29.92,NE,54,0.0,0.0,76,0.00,,---,0.00,VWS V14.00,2013-07-16 13:46:00,
2013-07-16 08:50:00,61.2,53.6,29.92,NE,54,0.0,0.0,76,0.00,,---,0.00,VWS V14.00,2013-07-16 13:50:00,
2013-07-16 08:51:00,61.2,53.6,29.92,NE,54,0.0,0.0,76,0.00,,---,0.00,VWS V14.00,2013-07-16 13:51:00,
2013-07-16 08:55:00,61.3,53.3,29.92,NE,54,0.0,0.0,75,0.00,,---,0.00,VWS V14.00,2013-07-16 13:55:00,
2013-07-16 08:56:00,61.3,53.3,29.92,NE,54,0.0,0.0,75,0.00,,---,0.00,VWS V14.00,2013-07-16 13:56:00,
2013-07-16 09:00:00,61.8,53.8,29.91,NE,54,0.0,0.0,75,0.00,,---,0.00,VWS V14.00,2013-07-16 14:00:00,
2013-07-16 09:01:00,61.6,53.6,29.91,NE,54,0.0,0.0,75,0.00,,---,0.00,VWS V14.00,2013-07-16 14:01:00,
2013-07-16 09:02:00,61.6,53.2,29.91,NE,54,0.0,0.0,74,0.00,,---,0.00,VWS V14.00,2013-07-16 14:02:00,
2013-07-16 09:06:00,62.0,53.6,29.91,NE,54,0.0,0.0,74,0.00,,---,0.00,VWS V14.00,2013-07-16 14:06:00,
2013-07-16 09:08:00,62.0,53.6,29.91,NE,54,0.0,0.0,74,0.00,,---,0.00,VWS V14.00,2013-07-16 14:08:00,
2013-07-16 09:11:00,62.1,53.7,29.91,NE,54,0.0,0.0,74,0.00,,---,0.00,VWS V14.00,2013-07-16 14:11:00,
2013-07-16 09:12:00,62.1,53.3,29.91,NE,54,0.0,0.0,73,0.00,,---,0.00,VWS V14.00,2013-07-16 14:12:00,
2013-07-16 09:13:00,62.3,53.5,29.91,NE,54,0.0,0.0,73,0.00,,---,0.00,VWS V14.00,2013-07-16 14:13:00,
2013-07-16 09:16:00,62.3,53.5,29.93,NE,54,0.0,0.0,73,0.00,,---,0.00,VWS V14.00,2013-07-16 14:16:00,
2013-07-16 09:17:00,62.4,54.0,29.93,NE,54,0.0,0.0,74,0.00,,---,0.00,VWS V14.00,2013-07-16 14:17:00,
2013-07-16 09:18:00,62.6,54.2,29.93,NE,54,0.0,0.0,74,0.00,,---,0.00,VWS V14.00,2013-07-16 14:18:00,
2013-07-16 09:21:00,63.1,54.3,29.93,NE,54,0.0,0.0,73,0.00,,---,0.00,VWS V14.00,2013-07-16 14:21:00,
2013-07-16 09:22:00,63.1,54.3,29.93,NE,54,0.0,0.0,73,0.00,,---,0.00,VWS V14.00,2013-07-16 14:22:00,
2013-07-16 09:23:00,63.1,54.3,29.93,NE,54,0.0,0.0,73,0.00,,---,0.00,VWS V14.00,2013-07-16 14:23:00,
2013-07-16 09:26:00,63.9,54.7,29.93,NE,54,0.0,0.0,72,0.00,,---,0.00,VWS V14.00,2013-07-16 14:26:00,
2013-07-16 09:27:00,64.0,54.4,29.93,NE,54,0.0,0.0,71,0.00,,---,0.00,VWS V14.00,2013-07-16 14:27:00,
2013-07-16 09:28:00,64.0,54.4,29.93,NE,52,0.0,0.0,71,0.00,,---,0.00,VWS V14.00,2013-07-16 14:28:00,
2013-07-16 09:32:00,63.4,54.2,29.92,NE,54,0.0,0.0,72,0.00,,---,0.00,VWS V14.00,2013-07-16 14:32:00,
2013-07-16 09:33:00,63.2,54.0,29.92,NE,54,0.0,0.0,72,0.00,,---,0.00,VWS V14.00,2013-07-16 14:33:00,
2013-07-16 09:37:00,63.4,54.6,29.92,NE,54,0.0,0.0,73,0.00,,---,0.00,VWS V14.00,2013-07-16 14:37:00,
2013-07-16 09:38:00,63.4,54.6,29.92,NE,54,0.0,0.0,73,0.00,,---,0.00,VWS V14.00,2013-07-16 14:38:00,
2013-07-16 09:39:00,63.4,54.6,29.92,NE,54,0.0,0.0,73,0.00,,---,0.00,VWS V14.00,2013-07-16 14:39:00,
2013-07-16 09:42:00,63.4,54.2,29.92,NE,55,0.0,0.0,72,0.00,,---,0.00,VWS V14.00,2013-07-16 14:42:00,
2013-07-16 09:43:00,63.4,54.6,29.92,NE,55,0.0,0.0,73,0.00,,---,0.00,VWS V14.00,2013-07-16 14:43:00,
2013-07-16 09:44:00,63.4,54.2,29.93,NE,55,0.0,0.0,72,0.00,,---,0.00,VWS V14.00,2013-07-16 14:44:00,
2013-07-16 09:47:00,63.1,53.9,29.93,NE,55,0.0,0.0,72,0.00,,---,0.00,VWS V14.00,2013-07-16 14:47:00,
2013-07-16 09:48:00,63.1,53.9,29.93,NE,55,0.0,0.0,72,0.00,,---,0.00,VWS V14.00,2013-07-16 14:48:00,
2013-07-16 09:49:00,63.1,54.7,29.93,NE,55,5.0,6.0,74,0.00,,---,0.00,VWS V14.00,2013-07-16 14:49:00,
2013-07-16 09:52:00,62.9,54.1,29.93,NE,55,0.0,6.0,73,0.00,,---,0.00,VWS V14.00,2013-07-16 14:52:00,
2013-07-16 09:53:00,62.9,54.1,29.93,NE,55,0.0,6.0,73,0.00,,---,0.00,VWS V14.00,2013-07-16 14:53:00,
2013-07-16 09:54:00,62.9,54.1,29.93,NE,55,3.0,7.0,73,0.00,,---,0.00,VWS V14.00,2013-07-16 14:54:00,
2013-07-16 09:57:00,62.9,54.1,29.93,NE,55,0.0,7.0,73,0.00,,---,0.00,VWS V14.00,2013-07-16 14:57:00,
2013-07-16 09:58:00,62.9,54.1,29.93,NE,55,0.0,7.0,73,0.00,,---,0.00,VWS V14.00,2013-07-16 14:58:00,
2013-07-16 09:59:00,63.1,54.3,29.94,NE,55,0.0,7.0,73,0.00,,---,0.00,VWS V14.00,2013-07-16 14:59:00,
2013-07-16 10:03:00,62.9,53.8,29.94,NNE,23,5.0,11.0,72,0.00,,---,0.00,VWS V14.00,2013-07-16 15:03:00,
2013-07-16 10:04:00,62.9,54.1,29.94,NNE,21,6.0,11.0,73,0.00,,---,0.00,VWS V14.00,2013-07-16 15:04:00,
2013-07-16 10:08:00,62.6,54.2,29.94,NNE,25,6.0,11.0,74,0.00,,---,0.00,VWS V14.00,2013-07-16 15:08:00,
2013-07-16 10:09:00,62.4,53.6,29.94,NNE,25,7.0,11.0,73,0.00,,---,0.00,VWS V14.00,2013-07-16 15:09:00,
2013-07-16 10:10:00,62.4,53.6,29.94,NNE,24,6.0,11.0,73,0.00,,---,0.00,VWS V14.00,2013-07-16 15:10:00,
2013-07-16 10:13:00,62.1,54.1,29.94,NNE,24,2.0,11.0,75,0.00,,---,0.00,VWS V14.00,2013-07-16 15:13:00,
2013-07-16 10:14:00,62.3,54.3,29.94,NNE,24,1.0,11.0,75,0.00,,---,0.00,VWS V14.00,2013-07-16 15:14:00,
2013-07-16 10:15:00,62.3,54.3,29.94,NNE,32,6.0,11.0,75,0.00,,---,0.00,VWS V14.00,2013-07-16 15:15:00,
2013-07-16 10:18:00,62.3,54.3,29.94,NNE,32,2.0,11.0,75,0.00,,---,0.00,VWS V14.00,2013-07-16 15:18:00,
2013-07-16 10:19:00,62.4,54.4,29.94,NNE,32,0.0,11.0,75,0.00,,---,0.00,VWS V14.00,2013-07-16 15:19:00,
2013-07-16 10:20:00,62.4,54.4,29.94,NNE,32,0.0,11.0,75,0.00,,---,0.00,VWS V14.00,2013-07-16 15:20:00,
2013-07-16 10:23:00,62.6,54.6,29.94,NNE,32,5.0,11.0,75,0.00,,---,0.00,VWS V14.00,2013-07-16 15:23:00,
2013-07-16 10:24:00,62.6,54.2,29.94,NNE,32,1.0,11.0,74,0.00,,---,0.00,VWS V14.00,2013-07-16 15:24:00,
2013-07-16 10:25:00,62.6,54.2,29.94,NNE,32,0.0,11.0,74,0.00,,---,0.00,VWS V14.00,2013-07-16 15:25:00,
2013-07-16 10:26:00,62.6,54.2,29.94,NNE,32,1.0,11.0,74,0.00,,---,0.00,VWS V14.00,2013-07-16 15:26:00,
2013-07-16 10:28:00,62.4,54.0,29.94,NE,44,7.0,11.0,74,0.00,,---,0.00,VWS V14.00,2013-07-16 15:28:00,
2013-07-16 10:29:00,62.4,54.0,29.94,NE,44,1.0,11.0,74,0.00,,---,0.00,VWS V14.00,2013-07-16 15:29:00,
2013-07-16 10:30:00,62.4,54.0,29.94,NE,44,4.0,5.0,74,0.00,,---,0.00,VWS V14.00,2013-07-16 15:30:00,
2013-07-16 10:31:00,62.3,53.9,29.94,NE,35,2.0,7.0,74,0.00,,---,0.00,VWS V14.00,2013-07-16 15:31:00,
2013-07-16 10:33:00,62.3,53.9,29.94,NNE,28,6.0,7.0,74,0.00,,---,0.00,VWS V14.00,2013-07-16 15:33:00,
2013-07-16 10:34:00,62.3,53.9,29.94,NNE,28,5.0,7.0,74,0.00,,---,0.00,VWS V14.00,2013-07-16 15:34:00,
2013-07-16 10:35:00,62.3,53.9,29.94,NNE,27,6.0,7.0,74,0.00,,---,0.00,VWS V14.00,2013-07-16 15:35:00,
2013-07-16 10:36:00,62.1,53.7,29.94,NNE,27,3.0,7.0,74,0.00,,---,0.00,VWS V14.00,2013-07-16 15:36:00,
2013-07-16 10:39:00,62.4,54.0,29.94,NE,34,1.0,7.0,74,0.00,,---,0.00,VWS V14.00,2013-07-16 15:39:00,
2013-07-16 10:40:00,62.4,54.4,29.94,NE,35,2.0,7.0,75,0.00,,---,0.00,VWS V14.00,2013-07-16 15:40:00,
2013-07-16 10:41:00,62.4,54.4,29.94,NE,35,1.0,7.0,75,0.00,,---,0.00,VWS V14.00,2013-07-16 15:41:00,
2013-07-16 10:44:00,62.4,54.4,29.94,NE,37,4.0,7.0,75,0.00,,---,0.00,VWS V14.00,2013-07-16 15:44:00,
2013-07-16 10:45:00,62.4,54.4,29.94,NE,37,0.0,7.0,75,0.00,,---,0.00,VWS V14.00,2013-07-16 15:45:00,
2013-07-16 10:46:00,62.4,54.4,29.94,NE,37,0.0,7.0,75,0.00,,---,0.00,VWS V14.00,2013-07-16 15:46:00,
2013-07-16 10:49:00,62.1,54.1,29.94,NE,40,2.0,8.0,75,0.00,,---,0.00,VWS V14.00,2013-07-16 15:49:00,
2013-07-16 10:50:00,62.1,54.1,29.94,NE,40,0.0,8.0,75,0.00,,---,0.00,VWS V14.00,2013-07-16 15:50:00,
2013-07-16 10:51:00,62.1,54.1,29.94,NE,41,4.0,8.0,75,0.00,,---,0.00,VWS V14.00,2013-07-16 15:51:00,
2013-07-16 10:54:00,62.1,54.5,29.94,NE,41,3.0,8.0,76,0.00,,---,0.00,VWS V14.00,2013-07-16 15:54:00,
2013-07-16 10:55:00,62.0,54.7,29.94,NE,44,5.0,8.0,77,0.00,,---,0.00,VWS V14.00,2013-07-16 15:55:00,
2013-07-16 10:56:00,62.1,54.8,29.94,NE,44,0.0,8.0,77,0.00,,---,0.00,VWS V14.00,2013-07-16 15:56:00,
2013-07-16 10:59:00,62.1,54.5,29.94,NE,44,0.0,0.0,76,0.00,,---,0.00,VWS V14.00,2013-07-16 15:59:00,
2013-07-16 11:00:00,62.1,54.5,29.94,NE,44,0.0,0.0,76,0.00,,---,0.00,VWS V14.00,2013-07-16 16:00:00,
2013-07-16 11:01:00,62.1,54.5,29.94,NE,44,0.0,0.0,76,0.00,,---,0.00,VWS V14.00,2013-07-16 16:01:00,
2013-07-16 11:04:00,62.3,54.7,29.94,NE,44,0.0,0.0,76,0.00,,---,0.00,VWS V14.00,2013-07-16 16:04:00,
2013-07-16 11:05:00,62.3,54.7,29.94,NE,45,5.0,5.0,76,0.00,,---,0.00,VWS V14.00,2013-07-16 16:05:00,
2013-07-16 11:06:00,62.3,54.7,29.94,NE,44,2.0,5.0,76,0.00,,---,0.00,VWS V14.00,2013-07-16 16:06:00,
2013-07-16 11:10:00,62.3,54.3,29.94,NE,44,5.0,7.0,75,0.00,,---,0.00,VWS V14.00,2013-07-16 16:10:00,
2013-07-16 11:11:00,62.1,54.5,29.94,NE,42,2.0,7.0,76,0.00,,---,0.00,VWS V14.00,2013-07-16 16:11:00,
2013-07-16 11:12:00,62.1,54.5,29.94,NE,41,2.0,7.0,76,0.00,,---,0.00,VWS V14.00,2013-07-16 16:12:00,
2013-07-16 11:15:00,62.1,54.5,29.95,NNE,21,1.0,7.0,76,0.00,,---,0.00,VWS V14.00,2013-07-16 16:15:00,
2013-07-16 11:16:00,62.1,54.5,29.95,NNE,23,0.0,7.0,76,0.00,,---,0.00,VWS V14.00,2013-07-16 16:16:00,
2013-07-16 11:17:00,62.1,54.5,29.95,NNE,23,2.0,7.0,76,0.00,,---,0.00,VWS V14.00,2013-07-16 16:17:00,
2013-07-16 11:20:00,62.0,54.7,29.95,NNE,21,6.0,7.0,77,0.00,,---,0.00,VWS V14.00,2013-07-16 16:20:00,
2013-07-16 11:21:00,62.0,54.7,29.95,NNE,21,3.0,7.0,77,0.00,,---,0.00,VWS V14.00,2013-07-16 16:21:00,
2013-07-16 11:22:00,61.8,54.5,29.95,NNE,24,5.0,7.0,77,0.00,,---,0.00,VWS V14.00,2013-07-16 16:22:00,
2013-07-16 11:25:00,61.3,54.0,29.95,NNE,28,4.0,7.0,77,0.00,,---,0.00,VWS V14.00,2013-07-16 16:25:00,
2013-07-16 11:26:00,61.2,54.6,29.95,NNE,28,2.0,7.0,79,0.00,,---,0.00,VWS V14.00,2013-07-16 16:26:00,
2013-07-16 11:27:00,61.2,54.6,29.95,NNE,28,3.0,7.0,79,0.00,,---,0.00,VWS V14.00,2013-07-16 16:27:00,
2013-07-16 11:30:00,60.9,54.7,29.96,NNE,32,0.0,3.0,80,0.00,,---,0.00,VWS V14.00,2013-07-16 16:30:00,
2013-07-16 11:31:00,60.9,54.7,29.96,NNE,32,0.0,3.0,80,0.00,,---,0.00,VWS V14.00,2013-07-16 16:31:00,
2013-07-16 11:32:00,60.9,54.7,29.96,NE,34,3.0,7.0,80,0.00,,---,0.00,VWS V14.00,2013-07-16 16:32:00,
2013-07-16 11:36:00,60.7,54.5,29.96,NNE,32,2.0,7.0,80,0.00,,---,0.00,VWS V14.00,2013-07-16 16:36:00,
2013-07-16 11:37:00,60.7,54.5,29.96,NNE,28,6.0,7.0,80,0.00,,---,0.00,VWS V14.00,2013-07-16 16:37:00,
2013-07-16 11:38:00,60.7,54.2,29.96,NNE,27,2.0,7.0,79,0.00,,---,0.00,VWS V14.00,2013-07-16 16:38:00,
2013-07-16 11:41:00,60.9,54.7,29.96,NNE,27,0.0,7.0,80,0.00,,---,0.00,VWS V14.00,2013-07-16 16:41:00,
2013-07-16 11:42:00,61.0,54.8,29.96,NNE,27,4.0,7.0,80,0.00,,---,0.00,VWS V14.00,2013-07-16 16:42:00,
2013-07-16 11:43:00,60.9,54.7,29.96,NNE,25,5.0,7.0,80,0.00,,---,0.00,VWS V14.00,2013-07-16 16:43:00,
2013-07-16 11:46:00,60.9,54.7,29.96,NNE,24,2.0,7.0,80,0.00,,---,0.00,VWS V14.00,2013-07-16 16:46:00,
2013-07-16 11:47:00,60.9,54.7,29.96,NNE,24,0.0,7.0,80,0.00,,---,0.00,VWS V14.00,2013-07-16 16:47:00,
2013-07-16 11:48:00,60.9,54.7,29.96,NNE,24,0.0,7.0,80,0.00,,---,0.00,VWS V14.00,2013-07-16 16:48:00,
2013-07-16 11:51:00,61.0,54.8,29.96,NNE,24,2.0,7.0,80,0.00,,---,0.00,VWS V14.00,2013-07-16 16:51:00,
2013-07-16 11:53:00,61.0,55.1,29.96,NNE,24,5.0,7.0,81,0.00,,---,0.00,VWS V14.00,2013-07-16 16:53:00,
2013-07-16 11:56:00,60.9,55.0,29.96,NNE,30,3.0,7.0,81,0.00,,---,0.00,VWS V14.00,2013-07-16 16:56:00,
2013-07-16 11:58:00,60.9,55.0,29.96,NNE,30,0.0,7.0,81,0.00,,---,0.00,VWS V14.00,2013-07-16 16:58:00,
2013-07-16 12:01:00,60.7,54.8,29.96,NNE,32,2.0,7.0,81,0.00,,---,0.00,VWS V14.00,2013-07-16 17:01:00,
2013-07-16 12:02:00,60.7,54.8,29.96,NNE,32,1.0,7.0,81,0.00,,---,0.00,VWS V14.00,2013-07-16 17:02:00,
2013-07-16 12:03:00,60.7,54.8,29.96,NNE,32,5.0,7.0,81,0.00,,---,0.00,VWS V14.00,2013-07-16 17:03:00,
2013-07-16 12:07:00,60.9,55.0,29.96,North,354,7.0,7.0,81,0.00,,---,0.00,VWS V14.00,2013-07-16 17:07:00,
2013-07-16 12:08:00,60.9,54.7,29.96,North,354,6.0,7.0,80,0.00,,---,0.00,VWS V14.00,2013-07-16 17:08:00,
2013-07-16 12:09:00,60.9,54.7,29.96,North,0,5.0,8.0,80,0.00,,---,0.00,VWS V14.00,2013-07-16 17:09:00,
2013-07-16 12:12:00,61.0,55.1,29.96,North,0,1.0,8.0,81,0.00,,---,0.00,VWS V14.00,2013-07-16 17:12:00,
2013-07-16 12:14:00,61.2,55.0,29.96,North,0,3.0,8.0,80,0.00,,---,0.00,VWS V14.00,2013-07-16 17:14:00,
2013-07-16 12:17:00,61.3,55.1,29.96,North,6,0.0,8.0,80,0.00,,---,0.00,VWS V14.00,2013-07-16 17:17:00,
2013-07-16 12:19:00,61.5,55.6,29.96,NNE,32,6.0,8.0,81,0.00,,---,0.00,VWS V14.00,2013-07-16 17:19:00,
2013-07-16 12:22:00,61.5,55.6,29.96,NE,38,1.0,8.0,81,0.00,,---,0.00,VWS V14.00,2013-07-16 17:22:00,
2013-07-16 12:24:00,61.6,55.4,29.96,North,359,3.0,8.0,80,0.00,,---,0.00,VWS V14.00,2013-07-16 17:24:00,
2013-07-16 12:25:00,61.6,55.0,29.96,North,0,5.0,8.0,79,0.00,,---,0.00,VWS V14.00,2013-07-16 17:25:00,
2013-07-16 12:27:00,61.5,55.3,29.96,North,4,3.0,8.0,80,0.00,,---,0.00,VWS V14.00,2013-07-16 17:27:00,
2013-07-16 12:29:00,61.5,54.6,29.96,North,6,2.0,6.0,78,0.00,,---,0.00,VWS V14.00,2013-07-16 17:29:00,
2013-07-16 12:30:00,61.6,54.7,29.96,North,6,1.0,6.0,78,0.00,,---,0.00,VWS V14.00,2013-07-16 17:30:00,
2013-07-16 12:32:00,61.6,54.7,29.96,NE,41,5.0,8.0,78,0.00,,---,0.00,VWS V14.00,2013-07-16 17:32:00,
2013-07-16 12:33:00,61.6,54.7,29.96,NE,41,4.0,8.0,78,0.00,,---,0.00,VWS V14.00,2013-07-16 17:33:00,
2013-07-16 12:34:00,61.6,55.0,29.96,NNE,25,6.0,8.0,79,0.00,,---,0.00,VWS V14.00,2013-07-16 17:34:00,
2013-07-16 12:35:00,61.6,55.0,29.96,ENE,59,7.0,8.0,79,0.00,,---,0.00,VWS V14.00,2013-07-16 17:35:00,
2013-07-16 12:38:00,62.0,54.7,29.96,NE,51,5.0,8.0,77,0.00,,---,0.00,VWS V14.00,2013-07-16 17:38:00,
2013-07-16 12:40:00,62.1,54.8,29.96,NE,51,6.0,8.0,77,0.00,,---,0.00,VWS V14.00,2013-07-16 17:40:00,
2013-07-16 12:43:00,62.7,55.0,29.96,NE,49,6.0,8.0,76,0.00,,---,0.00,VWS V14.00,2013-07-16 17:43:00,
2013-07-16 12:45:00,63.2,54.8,29.95,NNE,18,8.0,8.0,74,0.00,,---,0.00,VWS V14.00,2013-07-16 17:45:00,
2013-07-16 12:46:00,63.2,54.8,29.95,NNE,23,3.0,8.0,74,0.00,,---,0.00,VWS V14.00,2013-07-16 17:46:00,
2013-07-16 12:48:00,63.4,55.3,29.95,NNE,24,1.0,8.0,75,0.00,,---,0.00,VWS V14.00,2013-07-16 17:48:00,
2013-07-16 12:49:00,63.4,55.3,29.95,NNE,24,1.0,8.0,75,0.00,,---,0.00,VWS V14.00,2013-07-16 17:49:00,
2013-07-16 12:50:00,63.4,55.3,29.95,NNE,24,3.0,8.0,75,0.00,,---,0.00,VWS V14.00,2013-07-16 17:50:00,
2013-07-16 12:51:00,63.5,55.4,29.95,NNE,24,2.0,8.0,75,0.00,,---,0.00,VWS V14.00,2013-07-16 17:51:00,
2013-07-16 12:54:00,63.5,55.4,29.95,NNE,20,3.0,8.0,75,0.00,,---,0.00,VWS V14.00,2013-07-16 17:54:00,
2013-07-16 12:55:00,63.2,55.2,29.95,NNE,20,6.0,8.0,75,0.00,,---,0.00,VWS V14.00,2013-07-16 17:55:00,
2013-07-16 12:56:00,63.1,55.1,29.95,NE,48,6.0,10.0,75,0.00,,---,0.00,VWS V14.00,2013-07-16 17:56:00,
2013-07-16 12:59:00,63.2,55.2,29.95,NE,51,6.0,10.0,75,0.00,,---,0.00,VWS V14.00,2013-07-16 17:59:00,
2013-07-16 13:00:00,63.2,55.2,29.95,NE,41,3.0,6.0,75,0.00,,---,0.00,VWS V14.00,2013-07-16 18:00:00,
2013-07-16 13:01:00,63.2,55.2,29.95,ENE,78,10.0,10.0,75,0.00,,---,0.00,VWS V14.00,2013-07-16 18:01:00,
2013-07-16 13:04:00,63.2,55.2,29.95,NNE,18,3.0,12.0,75,0.00,,---,0.00,VWS V14.00,2013-07-16 18:04:00,
2013-07-16 13:05:00,63.4,54.6,29.95,North,11,0.0,12.0,73,0.00,,---,0.00,VWS V14.00,2013-07-16 18:05:00,
2013-07-16 13:07:00,63.4,55.3,29.95,North,0,8.0,12.0,75,0.00,,---,0.00,VWS V14.00,2013-07-16 18:07:00,
2013-07-16 13:09:00,63.1,54.7,29.95,North,10,3.0,12.0,74,0.00,,---,0.00,VWS V14.00,2013-07-16 18:09:00,
2013-07-16 13:10:00,63.1,55.1,29.95,North,10,2.0,12.0,75,0.00,,---,0.00,VWS V14.00,2013-07-16 18:10:00,
2013-07-16 13:12:00,62.9,54.5,29.95,North,11,5.0,12.0,74,0.00,,---,0.00,VWS V14.00,2013-07-16 18:12:00,
2013-07-16 13:14:00,62.6,54.9,29.96,NNE,23,2.0,12.0,76,0.00,,---,0.00,VWS V14.00,2013-07-16 18:14:00,
2013-07-16 13:15:00,62.4,54.8,29.96,NE,47,2.0,12.0,76,0.00,,---,0.00,VWS V14.00,2013-07-16 18:15:00,
2013-07-16 13:17:00,62.3,55.0,29.96,NE,45,2.0,12.0,77,0.00,,---,0.00,VWS V14.00,2013-07-16 18:17:00,
2013-07-16 13:19:00,62.3,55.0,29.96,NE,45,2.0,12.0,77,0.00,,---,0.00,VWS V14.00,2013-07-16 18:19:00,
2013-07-16 13:20:00,62.3,55.0,29.96,NE,45,0.0,12.0,77,0.00,,---,0.00,VWS V14.00,2013-07-16 18:20:00,
2013-07-16 13:21:00,62.4,55.1,29.96,North,356,3.0,12.0,77,0.00,,---,0.00,VWS V14.00,2013-07-16 18:21:00,
2013-07-16 13:22:00,62.4,55.1,29.96,North,354,5.0,12.0,77,0.00,,---,0.00,VWS V14.00,2013-07-16 18:22:00,
2013-07-16 13:24:00,62.4,55.1,29.96,North,359,5.0,12.0,77,0.00,,---,0.00,VWS V14.00,2013-07-16 18:24:00,
2013-07-16 13:25:00,62.4,55.1,29.96,North,0,4.0,12.0,77,0.00,,---,0.00,VWS V14.00,2013-07-16 18:25:00,
2013-07-16 13:26:00,62.4,55.1,29.96,North,0,2.0,12.0,77,0.00,,---,0.00,VWS V14.00,2013-07-16 18:26:00,
2013-07-16 13:27:00,62.4,55.1,29.96,North,0,2.0,12.0,77,0.00,,---,0.00,VWS V14.00,2013-07-16 18:27:00,
2013-07-16 13:29:00,62.1,54.8,29.97,North,352,10.0,12.0,77,0.00,,---,0.00,VWS V14.00,2013-07-16 18:29:00,
2013-07-16 13:31:00,62.0,55.4,29.97,North,359,6.0,10.0,79,0.00,,---,0.00,VWS V14.00,2013-07-16 18:31:00,
2013-07-16 13:32:00,62.0,55.4,29.97,North,10,7.0,10.0,79,0.00,,---,0.00,VWS V14.00,2013-07-16 18:32:00,
2013-07-16 13:34:00,62.0,55.4,29.97,North,359,2.0,10.0,79,0.00,,---,0.00,VWS V14.00,2013-07-16 18:34:00,
2013-07-16 13:36:00,62.1,55.2,29.97,North,356,5.0,10.0,78,0.00,,---,0.00,VWS V14.00,2013-07-16 18:36:00,
2013-07-16 13:37:00,62.1,55.2,29.97,North,356,2.0,10.0,78,0.00,,---,0.00,VWS V14.00,2013-07-16 18:37:00,
2013-07-16 13:39:00,62.3,54.7,29.97,North,356,5.0,10.0,76,0.00,,---,0.00,VWS V14.00,2013-07-16 18:39:00,
2013-07-16 13:41:00,62.3,55.4,29.97,North,354,6.0,10.0,78,0.00,,---,0.00,VWS V14.00,2013-07-16 18:41:00,
2013-07-16 13:42:00,62.4,55.5,29.97,North,359,4.0,10.0,78,0.00,,---,0.00,VWS V14.00,2013-07-16 18:42:00,
2013-07-16 13:44:00,62.6,54.9,29.96,North,359,5.0,10.0,76,0.00,,---,0.00,VWS V14.00,2013-07-16 18:44:00,
2013-07-16 13:46:00,62.7,54.7,29.96,North,354,5.0,10.0,75,0.00,,---,0.00,VWS V14.00,2013-07-16 18:46:00,
2013-07-16 13:47:00,62.7,54.7,29.96,North,354,5.0,10.0,75,0.00,,---,0.00,VWS V14.00,2013-07-16 18:47:00,
2013-07-16 13:48:00,62.7,54.7,29.96,North,354,3.0,10.0,75,0.00,,---,0.00,VWS V14.00,2013-07-16 18:48:00,
2013-07-16 13:50:00,62.7,55.0,29.96,North,0,0.0,10.0,76,0.00,,---,0.00,VWS V14.00,2013-07-16 18:50:00,
2013-07-16 13:51:00,62.7,55.0,29.96,North,0,5.0,10.0,76,0.00,,---,0.00,VWS V14.00,2013-07-16 18:51:00,
2013-07-16 13:52:00,62.7,55.0,29.96,North,0,0.0,10.0,76,0.00,,---,0.00,VWS V14.00,2013-07-16 18:52:00,
2013-07-16 13:53:00,62.7,55.0,29.96,North,0,0.0,10.0,76,0.00,,---,0.00,VWS V14.00,2013-07-16 18:53:00,
2013-07-16 13:55:00,62.9,55.2,29.96,North,0,5.0,10.0,76,0.00,,---,0.00,VWS V14.00,2013-07-16 18:55:00,
2013-07-16 13:56:00,62.7,55.0,29.96,NNE,32,5.0,10.0,76,0.00,,---,0.00,VWS V14.00,2013-07-16 18:56:00,
2013-07-16 13:57:00,62.6,55.3,29.96,NNE,32,3.0,10.0,77,0.00,,---,0.00,VWS V14.00,2013-07-16 18:57:00,
2013-07-16 13:58:00,62.6,54.9,29.96,NNE,31,2.0,10.0,76,0.00,,---,0.00,VWS V14.00,2013-07-16 18:58:00,
2013-07-16 14:00:00,62.6,54.9,29.96,NE,34,5.0,6.0,76,0.00,,---,0.00,VWS V14.00,2013-07-16 19:00:00,
2013-07-16 14:01:00,62.6,54.9,29.96,NE,44,2.0,8.0,76,0.00,,---,0.00,VWS V14.00,2013-07-16 19:01:00,
2013-07-16 14:02:00,62.6,55.7,29.96,NE,44,5.0,8.0,78,0.00,,---,0.00,VWS V14.00,2013-07-16 19:02:00,
2013-07-16 14:03:00,62.6,55.3,29.96,NE,44,7.0,8.0,77,0.00,,---,0.00,VWS V14.00,2013-07-16 19:03:00,
2013-07-16 14:04:00,62.4,55.1,29.96,NE,45,3.0,8.0,77,0.00,,---,0.00,VWS V14.00,2013-07-16 19:04:00,
2013-07-16 14:05:00,62.3,55.4,29.96,NE,44,5.0,8.0,78,0.00,,---,0.00,VWS V14.00,2013-07-16 19:05:00,
2013-07-16 14:06:00,62.3,55.4,29.96,NE,45,2.0,8.0,78,0.00,,---,0.00,VWS V14.00,2013-07-16 19:06:00,
2013-07-16 14:07:00,62.3,55.4,29.96,ENE,64,3.0,9.0,78,0.00,,---,0.00,VWS V14.00,2013-07-16 19:07:00,
2013-07-16 14:08:00,62.3,55.4,29.96,ENE,62,4.0,9.0,78,0.00,,---,0.00,VWS V14.00,2013-07-16 19:08:00,
2013-07-16 14:09:00,62.3,55.4,29.96,ENE,62,3.0,9.0,78,0.00,,---,0.00,VWS V14.00,2013-07-16 19:09:00,
2013-07-16 14:10:00,62.3,55.4,29.96,ENE,62,0.0,9.0,78,0.00,,---,0.00,VWS V14.00,2013-07-16 19:10:00,
2013-07-16 14:11:00,62.1,55.2,29.96,ENE,62,0.0,9.0,78,0.00,,---,0.00,VWS V14.00,2013-07-16 19:11:00,
2013-07-16 14:12:00,62.1,55.2,29.96,ENE,58,0.0,9.0,78,0.00,,---,0.00,VWS V14.00,2013-07-16 19:12:00,
2013-07-16 14:13:00,62.1,55.2,29.96,NE,48,6.0,9.0,78,0.00,,---,0.00,VWS V14.00,2013-07-16 19:13:00,
2013-07-16 14:14:00,62.1,55.2,29.96,NE,45,3.0,9.0,78,0.00,,---,0.00,VWS V14.00,2013-07-16 19:14:00,
2013-07-16 14:15:00,62.1,55.2,29.96,NE,42,4.0,9.0,78,0.00,,---,0.00,VWS V14.00,2013-07-16 19:15:00,
2013-07-16 14:16:00,62.0,55.8,29.96,NE,42,0.0,9.0,80,0.00,,---,0.00,VWS V14.00,2013-07-16 19:16:00,
2013-07-16 14:18:00,62.0,55.4,29.96,NE,44,3.0,9.0,79,0.00,,---,0.00,VWS V14.00,2013-07-16 19:18:00,
2013-07-16 14:19:00,61.8,55.2,29.96,NE,41,2.0,9.0,79,0.00,,---,0.00,VWS V14.00,2013-07-16 19:19:00,
2013-07-16 14:20:00,61.8,55.2,29.96,NE,40,2.0,9.0,79,0.00,,---,0.00,VWS V14.00,2013-07-16 19:20:00,
2013-07-16 14:21:00,61.8,55.2,29.96,NE,40,2.0,9.0,79,0.00,,---,0.00,VWS V14.00,2013-07-16 19:21:00,
2013-07-16 14:23:00,62.0,55.4,29.96,NE,40,2.0,9.0,79,0.00,,---,0.00,VWS V14.00,2013-07-16 19:23:00,
2013-07-16 14:24:00,62.0,55.4,29.96,NE,40,0.0,9.0,79,0.00,,---,0.00,VWS V14.00,2013-07-16 19:24:00,
2013-07-16 14:25:00,62.0,56.1,29.96,NE,40,1.0,9.0,81,0.00,,---,0.00,VWS V14.00,2013-07-16 19:25:00,
2013-07-16 14:26:00,62.0,55.8,29.96,NE,40,4.0,9.0,80,0.00,,---,0.00,VWS V14.00,2013-07-16 19:26:00,
2013-07-16 14:28:00,62.1,55.9,29.95,NE,40,0.0,9.0,80,0.00,,---,0.00,VWS V14.00,2013-07-16 19:28:00,
2013-07-16 14:29:00,62.1,55.9,29.95,NE,40,0.0,9.0,80,0.00,,---,0.00,VWS V14.00,2013-07-16 19:29:00,
2013-07-16 14:30:00,62.3,55.7,29.95,NE,40,0.0,0.0,79,0.00,,---,0.00,VWS V14.00,2013-07-16 19:30:00,
2013-07-16 14:31:00,62.1,55.5,29.95,NE,40,0.0,0.0,79,0.00,,---,0.00,VWS V14.00,2013-07-16 19:31:00,
2013-07-16 14:33:00,62.3,55.7,29.95,NE,40,0.0,0.0,79,0.00,,---,0.00,VWS V14.00,2013-07-16 19:33:00,
2013-07-16 14:34:00,62.3,55.7,29.95,NE,41,0.0,0.0,79,0.00,,---,0.00,VWS V14.00,2013-07-16 19:34:00,
2013-07-16 14:35:00,62.1,55.5,29.95,NE,41,0.0,0.0,79,0.00,,---,0.00,VWS V14.00,2013-07-16 19:35:00,
2013-07-16 14:36:00,62.1,55.5,29.95,NE,41,0.0,0.0,79,0.00,,---,0.00,VWS V14.00,2013-07-16 19:36:00,
2013-07-16 14:38:00,62.0,55.8,29.95,NE,42,0.0,0.0,80,0.00,,---,0.00,VWS V14.00,2013-07-16 19:38:00,
2013-07-16 14:39:00,62.0,55.8,29.95,NE,42,0.0,0.0,80,0.00,,---,0.00,VWS V14.00,2013-07-16 19:39:00,
2013-07-16 14:40:00,62.0,55.8,29.95,NE,42,0.0,0.0,80,0.00,,---,0.00,VWS V14.00,2013-07-16 19:40:00,
2013-07-16 14:41:00,62.0,55.8,29.95,NE,42,0.0,0.0,80,0.00,,---,0.00,VWS V14.00,2013-07-16 19:41:00,
2013-07-16 14:44:00,62.0,56.1,29.95,NE,42,0.0,0.0,81,0.00,,---,0.00,VWS V14.00,2013-07-16 19:44:00,
2013-07-16 14:45:00,62.0,55.8,29.95,NE,42,0.0,0.0,80,0.00,,---,0.00,VWS V14.00,2013-07-16 19:45:00,
2013-07-16 14:46:00,61.8,55.9,29.95,NE,42,0.0,0.0,81,0.00,,---,0.00,VWS V14.00,2013-07-16 19:46:00,
2013-07-16 14:47:00,61.8,55.9,29.95,North,6,7.0,7.0,81,0.00,,---,0.00,VWS V14.00,2013-07-16 19:47:00,
2013-07-16 14:49:00,61.6,55.7,29.95,North,6,2.0,7.0,81,0.00,,---,0.00,VWS V14.00,2013-07-16 19:49:00,
2013-07-16 14:50:00,61.5,56.3,29.95,North,7,3.0,7.0,83,0.00,,---,0.00,VWS V14.00,2013-07-16 19:50:00,
2013-07-16 14:51:00,61.3,55.8,29.95,North,7,1.0,7.0,82,0.00,,---,0.00,VWS V14.00,2013-07-16 19:51:00,
2013-07-16 14:52:00,61.3,55.8,29.95,North,7,1.0,7.0,82,0.00,,---,0.00,VWS V14.00,2013-07-16 19:52:00,
2013-07-16 14:54:00,61.2,56.0,29.95,NNE,18,2.0,7.0,83,0.00,,---,0.00,VWS V14.00,2013-07-16 19:54:00,
2013-07-16 14:55:00,61.2,56.0,29.95,NNE,18,3.0,7.0,83,0.00,,---,0.00,VWS V14.00,2013-07-16 19:55:00,
2013-07-16 14:56:00,61.2,56.0,29.95,NNE,18,2.0,7.0,83,0.00,,---,0.00,VWS V14.00,2013-07-16 19:56:00,
2013-07-16 14:57:00,61.0,55.5,29.95,NNE,18,7.0,7.0,82,0.00,,---,0.00,VWS V14.00,2013-07-16 19:57:00,
2013-07-16 14:59:00,60.9,56.0,29.96,NNE,20,7.0,7.0,84,0.00,,---,0.00,VWS V14.00,2013-07-16 19:59:00,
2013-07-16 15:00:00,60.9,56.0,29.96,NNE,20,5.0,5.0,84,0.00,,---,0.00,VWS V14.00,2013-07-16 20:00:00,
2013-07-16 15:01:00,60.7,56.2,29.96,NNE,20,2.0,5.0,85,0.00,,---,0.00,VWS V14.00,2013-07-16 20:01:00,
2013-07-16 15:02:00,60.7,55.5,29.96,NNE,20,2.0,6.0,83,0.00,,---,0.00,VWS V14.00,2013-07-16 20:02:00,
2013-07-16 15:04:00,60.7,56.2,29.96,NNE,20,1.0,6.0,85,0.00,,---,0.00,VWS V14.00,2013-07-16 20:04:00,
2013-07-16 15:05:00,60.7,55.8,29.96,NNE,20,0.0,6.0,84,0.00,,---,0.00,VWS V14.00,2013-07-16 20:05:00,
2013-07-16 15:06:00,60.7,55.8,29.96,NNE,30,2.0,7.0,84,0.00,,---,0.00,VWS V14.00,2013-07-16 20:06:00,
2013-07-16 15:07:00,60.7,55.8,29.96,NE,34,5.0,7.0,84,0.00,,---,0.00,VWS V14.00,2013-07-16 20:07:00,
2013-07-16 15:09:00,60.7,55.8,29.96,NE,34,2.0,7.0,84,0.00,,---,0.00,VWS V14.00,2013-07-16 20:09:00,
2013-07-16 15:10:00,60.7,55.8,29.96,NE,35,1.0,7.0,84,0.00,,---,0.00,VWS V14.00,2013-07-16 20:10:00,
2013-07-16 15:11:00,60.7,56.2,29.96,NE,35,1.0,7.0,85,0.00,,---,0.00,VWS V14.00,2013-07-16 20:11:00,
2013-07-16 15:12:00,60.9,56.4,29.96,NE,35,1.0,7.0,85,0.00,,---,0.00,VWS V14.00,2013-07-16 20:12:00,
2013-07-16 15:14:00,61.0,56.5,29.95,NE,35,1.0,7.0,85,0.00,,---,0.00,VWS V14.00,2013-07-16 20:14:00,
2013-07-16 15:16:00,61.0,55.8,29.95,NE,34,0.0,7.0,83,0.00,,---,0.00,VWS V14.00,2013-07-16 20:16:00,
2013-07-16 15:17:00,61.2,56.0,29.95,NE,34,5.0,7.0,83,0.00,,---,0.00,VWS V14.00,2013-07-16 20:17:00,
2013-07-16 15:19:00,61.0,55.8,29.95,NE,34,0.0,7.0,83,0.00,,---,0.00,VWS V14.00,2013-07-16 20:19:00,
2013-07-16 15:21:00,61.2,55.3,29.95,NNE,31,5.0,7.0,81,0.00,,---,0.00,VWS V14.00,2013-07-16 20:21:00,
2013-07-16 15:22:00,61.0,55.5,29.95,NNE,28,0.0,7.0,82,0.00,,---,0.00,VWS V14.00,2013-07-16 20:22:00,
2013-07-16 15:23:00,61.0,55.5,29.95,NNE,28,0.0,7.0,82,0.00,,---,0.00,VWS V14.00,2013-07-16 20:23:00,
2013-07-16 15:24:00,61.0,55.8,29.95,NNE,28,0.0,7.0,83,0.00,,---,0.00,VWS V14.00,2013-07-16 20:24:00,
2013-07-16 15:26:00,61.0,55.5,29.95,NNE,28,6.0,7.0,82,0.00,,---,0.00,VWS V14.00,2013-07-16 20:26:00,
2013-07-16 15:28:00,60.9,56.0,29.95,NNE,28,5.0,7.0,84,0.00,,---,0.00,VWS V14.00,2013-07-16 20:28:00,
2013-07-16 15:29:00,61.0,56.1,29.95,NNE,28,0.0,7.0,84,0.00,,---,0.00,VWS V14.00,2013-07-16 20:29:00,
2013-07-16 15:31:00,61.0,55.8,29.95,NNE,28,4.0,7.0,83,0.00,,---,0.00,VWS V14.00,2013-07-16 20:31:00,
2013-07-16 15:33:00,61.0,55.8,29.95,NNE,25,2.0,7.0,83,0.00,,---,0.00,VWS V14.00,2013-07-16 20:33:00,
2013-07-16 15:34:00,60.9,55.7,29.95,NNE,25,0.0,7.0,83,0.00,,---,0.00,VWS V14.00,2013-07-16 20:34:00,
2013-07-16 15:36:00,61.0,55.8,29.95,NNE,25,0.0,7.0,83,0.00,,---,0.00,VWS V14.00,2013-07-16 20:36:00,
2013-07-16 15:38:00,61.0,55.8,29.95,NNE,25,0.0,7.0,83,0.00,,---,0.00,VWS V14.00,2013-07-16 20:38:00,
2013-07-16 15:39:00,61.0,55.8,29.95,NNE,25,0.0,7.0,83,0.00,,---,0.00,VWS V14.00,2013-07-16 20:39:00,
2013-07-16 15:41:00,61.0,55.8,29.95,NNE,25,2.0,7.0,83,0.00,,---,0.00,VWS V14.00,2013-07-16 20:41:00,
2013-07-16 15:43:00,61.0,55.8,29.95,NNE,25,0.0,7.0,83,0.00,,---,0.00,VWS V14.00,2013-07-16 20:43:00,
2013-07-16 15:44:00,61.0,55.8,29.95,NNE,25,0.0,7.0,83,0.00,,---,0.00,VWS V14.00,2013-07-16 20:44:00,
2013-07-16 15:46:00,61.0,55.5,29.95,NNE,27,0.0,7.0,82,0.00,,---,0.00,VWS V14.00,2013-07-16 20:46:00,
2013-07-16 15:47:00,61.0,55.5,29.95,NNE,27,0.0,7.0,82,0.00,,---,0.00,VWS V14.00,2013-07-16 20:47:00,
2013-07-16 15:48:00,60.9,55.0,29.95,NNE,27,0.0,7.0,81,0.00,,---,0.00,VWS V14.00,2013-07-16 20:48:00,
2013-07-16 15:49:00,61.0,55.1,29.95,NNE,27,0.0,7.0,81,0.00,,---,0.00,VWS V14.00,2013-07-16 20:49:00,
2013-07-16 15:51:00,61.0,55.1,29.95,NNE,30,0.0,7.0,81,0.00,,---,0.00,VWS V14.00,2013-07-16 20:51:00,
2013-07-16 15:52:00,61.0,55.1,29.95,NNE,30,0.0,7.0,81,0.00,,---,0.00,VWS V14.00,2013-07-16 20:52:00,
2013-07-16 15:53:00,61.0,55.1,29.95,NNE,30,3.0,7.0,81,0.00,,---,0.00,VWS V14.00,2013-07-16 20:53:00,
2013-07-16 15:54:00,61.0,55.1,29.95,NNE,30,0.0,7.0,81,0.00,,---,0.00,VWS V14.00,2013-07-16 20:54:00,
2013-07-16 15:56:00,61.0,55.5,29.95,NNE,31,4.0,7.0,82,0.00,,---,0.00,VWS V14.00,2013-07-16 20:56:00,
2013-07-16 15:57:00,60.9,55.0,29.95,NNE,31,3.0,7.0,81,0.00,,---,0.00,VWS V14.00,2013-07-16 20:57:00,
2013-07-16 15:58:00,60.9,55.7,29.95,NNE,31,1.0,7.0,83,0.00,,---,0.00,VWS V14.00,2013-07-16 20:58:00,
2013-07-16 15:59:00,60.9,55.4,29.95,NNE,31,0.0,7.0,82,0.00,,---,0.00,VWS V14.00,2013-07-16 20:59:00,
2013-07-16 16:00:00,61.0,55.1,29.95,NNE,31,0.0,2.0,81,0.00,,---,0.00,VWS V14.00,2013-07-16 21:00:00,
2013-07-16 16:01:00,61.0,55.1,29.95,NNE,31,0.0,2.0,81,0.00,,---,0.00,VWS V14.00,2013-07-16 21:01:00,
2013-07-16 16:02:00,61.0,55.1,29.95,NNE,31,0.0,2.0,81,0.00,,---,0.00,VWS V14.00,2013-07-16 21:02:00,
2013-07-16 16:04:00,61.3,55.4,29.95,NNE,31,0.0,2.0,81,0.00,,---,0.00,VWS V14.00,2013-07-16 21:04:00,
2013-07-16 16:05:00,61.5,55.6,29.95,NNE,31,0.0,2.0,81,0.00,,---,0.00,VWS V14.00,2013-07-16 21:05:00,
2013-07-16 16:06:00,61.5,55.6,29.95,NNE,31,0.0,2.0,81,0.00,,---,0.00,VWS V14.00,2013-07-16 21:06:00,
2013-07-16 16:07:00,61.5,55.6,29.95,NNE,31,0.0,2.0,81,0.00,,---,0.00,VWS V14.00,2013-07-16 21:07:00,
2013-07-16 16:09:00,61.6,55.7,29.95,NNE,31,0.0,2.0,81,0.00,,---,0.00,VWS V14.00,2013-07-16 21:09:00,
2013-07-16 16:10:00,61.6,55.4,29.95,NNE,31,0.0,2.0,80,0.00,,---,0.00,VWS V14.00,2013-07-16 21:10:00,
2013-07-16 16:12:00,61.6,55.7,29.95,NNE,31,0.0,2.0,81,0.00,,---,0.00,VWS V14.00,2013-07-16 21:12:00,
2013-07-16 16:14:00,61.6,55.7,29.94,NNE,31,0.0,2.0,81,0.00,,---,0.00,VWS V14.00,2013-07-16 21:14:00,
2013-07-16 16:15:00,61.5,55.6,29.94,NNE,31,0.0,2.0,81,0.00,,---,0.00,VWS V14.00,2013-07-16 21:15:00,
2013-07-16 16:17:00,61.3,55.4,29.94,NE,35,0.0,2.0,81,0.00,,---,0.00,VWS V14.00,2013-07-16 21:17:00,
2013-07-16 16:19:00,61.2,56.0,29.94,NE,37,0.0,2.0,83,0.00,,---,0.00,VWS V14.00,2013-07-16 21:19:00,
2013-07-16 16:21:00,61.2,56.3,29.94,NE,37,0.0,2.0,84,0.00,,---,0.00,VWS V14.00,2013-07-16 21:21:00,
2013-07-16 16:22:00,61.0,56.1,29.94,NE,37,0.0,2.0,84,0.00,,---,0.00,VWS V14.00,2013-07-16 21:22:00,
2013-07-16 16:23:00,61.0,56.1,29.94,NE,37,0.0,2.0,84,0.00,,---,0.00,VWS V14.00,2013-07-16 21:23:00,
2013-07-16 16:24:00,61.0,56.1,29.94,NE,37,0.0,2.0,84,0.00,,---,0.00,VWS V14.00,2013-07-16 21:24:00,
2013-07-16 16:26:00,61.0,56.1,29.94,NE,37,0.0,2.0,84,0.00,,---,0.00,VWS V14.00,2013-07-16 21:26:00,
2013-07-16 16:28:00,60.9,56.0,29.94,NE,37,0.0,2.0,84,0.00,,---,0.00,VWS V14.00,2013-07-16 21:28:00,
2013-07-16 16:29:00,60.9,56.0,29.95,NE,37,0.0,2.0,84,0.00,,---,0.00,VWS V14.00,2013-07-16 21:29:00,
2013-07-16 16:30:00,61.0,56.1,29.95,NE,37,0.0,0.0,84,0.00,,---,0.00,VWS V14.00,2013-07-16 21:30:00,
2013-07-16 16:31:00,60.9,56.0,29.95,NE,40,6.0,7.0,84,0.00,,---,0.00,VWS V14.00,2013-07-16 21:31:00,
2013-07-16 16:33:00,60.7,55.8,29.95,NE,40,2.0,7.0,84,0.00,,---,0.00,VWS V14.00,2013-07-16 21:33:00,
2013-07-16 16:34:00,60.5,56.0,29.95,NE,40,3.0,7.0,85,0.00,,---,0.00,VWS V14.00,2013-07-16 21:34:00,
2013-07-16 16:35:00,60.4,55.9,29.95,NE,40,2.0,7.0,85,0.00,,---,0.00,VWS V14.00,2013-07-16 21:35:00,
2013-07-16 16:37:00,60.4,56.2,29.95,NE,40,1.0,7.0,86,0.00,,---,0.00,VWS V14.00,2013-07-16 21:37:00,
2013-07-16 16:38:00,60.2,56.0,29.95,NE,40,3.0,7.0,86,0.00,,---,0.00,VWS V14.00,2013-07-16 21:38:00,
2013-07-16 16:39:00,60.2,56.0,29.95,NE,40,1.0,7.0,86,0.00,,---,0.00,VWS V14.00,2013-07-16 21:39:00,
2013-07-16 16:40:00,60.2,55.7,29.95,NE,40,2.0,7.0,85,0.00,,---,0.00,VWS V14.00,2013-07-16 21:40:00,
2013-07-16 16:42:00,60.1,55.6,29.95,NE,40,3.0,7.0,85,0.00,,---,0.00,VWS V14.00,2013-07-16 21:42:00,
2013-07-16 16:43:00,60.1,55.6,29.95,NE,40,5.0,7.0,85,0.00,,---,0.00,VWS V14.00,2013-07-16 21:43:00,
2013-07-16 16:44:00,60.1,55.6,29.95,NE,38,1.0,7.0,85,0.00,,---,0.00,VWS V14.00,2013-07-16 21:44:00,
2013-07-16 16:45:00,60.1,55.6,29.95,NE,37,3.0,7.0,85,0.00,,---,0.00,VWS V14.00,2013-07-16 21:45:00,
2013-07-16 16:47:00,60.1,55.9,29.95,NE,40,6.0,8.0,86,0.00,,---,0.00,VWS V14.00,2013-07-16 21:47:00,
2013-07-16 16:48:00,60.1,55.9,29.95,NE,38,5.0,8.0,86,0.00,,---,0.00,VWS V14.00,2013-07-16 21:48:00,
2013-07-16 16:49:00,60.1,55.9,29.95,NE,38,4.0,8.0,86,0.00,,---,0.00,VWS V14.00,2013-07-16 21:49:00,
2013-07-16 16:50:00,60.1,55.6,29.95,NE,37,3.0,8.0,85,0.00,,---,0.00,VWS V14.00,2013-07-16 21:50:00,
2013-07-16 16:53:00,60.2,55.7,29.95,NNE,20,1.0,8.0,85,0.00,,---,0.00,VWS V14.00,2013-07-16 21:53:00,
2013-07-16 16:54:00,60.2,55.7,29.95,NNE,20,6.0,8.0,85,0.00,,---,0.00,VWS V14.00,2013-07-16 21:54:00,
2013-07-16 16:55:00,60.4,55.9,29.95,NNE,20,1.0,8.0,85,0.00,,---,0.00,VWS V14.00,2013-07-16 21:55:00,
2013-07-16 16:56:00,60.2,55.3,29.95,NNE,20,2.0,8.0,84,0.00,,---,0.00,VWS V14.00,2013-07-16 21:56:00,
2013-07-16 16:58:00,60.4,55.2,29.95,NNE,18,7.0,8.0,83,0.00,,---,0.00,VWS V14.00,2013-07-16 21:58:00,
2013-07-16 16:59:00,60.5,55.7,29.96,NNE,18,3.0,8.0,84,0.00,,---,0.00,VWS V14.00,2013-07-16 21:59:00,
2013-07-16 17:00:00,60.5,55.3,29.96,NNE,17,3.0,5.0,83,0.00,,---,0.00,VWS V14.00,2013-07-16 22:00:00,
2013-07-16 17:01:00,60.5,55.3,29.96,NNE,14,5.0,6.0,83,0.00,,---,0.00,VWS V14.00,2013-07-16 22:01:00,
2013-07-16 17:03:00,60.7,55.5,29.96,North,10,1.0,6.0,83,0.00,,---,0.00,VWS V14.00,2013-07-16 22:03:00,
2013-07-16 17:04:00,60.9,55.7,29.96,North,10,2.0,6.0,83,0.00,,---,0.00,VWS V14.00,2013-07-16 22:04:00,
2013-07-16 17:06:00,61.0,55.1,29.96,North,10,2.0,6.0,81,0.00,,---,0.00,VWS V14.00,2013-07-16 22:06:00,
2013-07-16 17:09:00,61.2,55.0,29.96,North,10,0.0,6.0,80,0.00,,---,0.00,VWS V14.00,2013-07-16 22:09:00,
2013-07-16 17:21:00,62.1,54.1,29.94,North,10,0.0,6.0,75,0.00,,---,0.00,VWS V14.00,2013-07-16 22:21:00,
2013-07-16 17:26:00,62.6,53.5,29.94,North,10,0.0,6.0,72,0.00,,---,0.00,VWS V14.00,2013-07-16 22:26:00,
2013-07-16 17:27:00,62.7,53.5,29.94,North,10,0.0,6.0,72,0.00,,---,0.00,VWS V14.00,2013-07-16 22:27:00,
2013-07-16 17:31:00,63.1,53.2,29.94,North,11,0.0,0.0,70,0.00,,---,0.00,VWS V14.00,2013-07-16 22:31:00,
2013-07-16 17:32:00,63.1,53.2,29.94,North,11,0.0,0.0,70,0.00,,---,0.00,VWS V14.00,2013-07-16 22:32:00,
2013-07-16 17:36:00,63.2,53.3,29.94,North,11,0.0,0.0,70,0.00,,---,0.00,VWS V14.00,2013-07-16 22:36:00,
2013-07-16 17:37:00,63.2,53.3,29.94,North,11,0.0,0.0,70,0.00,,---,0.00,VWS V14.00,2013-07-16 22:37:00,
2013-07-16 17:38:00,63.2,53.3,29.94,North,11,0.0,0.0,70,0.00,,---,0.00,VWS V14.00,2013-07-16 22:38:00,
2013-07-16 17:45:00,63.4,53.5,29.94,North,11,0.0,0.0,70,0.00,,---,0.00,VWS V14.00,2013-07-16 22:45:00,
2013-07-16 17:50:00,63.2,53.7,29.94,North,11,0.0,0.0,71,0.00,,---,0.00,VWS V14.00,2013-07-16 22:50:00,
2013-07-16 17:55:00,63.2,54.0,29.94,North,11,0.0,0.0,72,0.00,,---,0.00,VWS V14.00,2013-07-16 22:55:00,
2013-07-16 17:56:00,63.2,54.0,29.94,North,11,0.0,0.0,72,0.00,,---,0.00,VWS V14.00,2013-07-16 22:56:00,
2013-07-16 18:00:00,63.1,53.9,29.93,North,7,3.0,5.0,72,0.00,,---,0.00,VWS V14.00,2013-07-16 23:00:00,
2013-07-16 18:01:00,63.1,53.9,29.93,North,7,3.0,5.0,72,0.00,,---,0.00,VWS V14.00,2013-07-16 23:01:00,
2013-07-16 18:02:00,63.1,53.9,29.93,North,7,2.0,5.0,72,0.00,,---,0.00,VWS V14.00,2013-07-16 23:02:00,
2013-07-16 18:06:00,62.9,53.8,29.93,North,10,0.0,7.0,72,0.00,,---,0.00,VWS V14.00,2013-07-16 23:06:00,
2013-07-16 18:07:00,62.9,53.8,29.93,North,10,0.0,7.0,72,0.00,,---,0.00,VWS V14.00,2013-07-16 23:07:00,
2013-07-16 18:11:00,62.9,53.8,29.93,North,10,0.0,7.0,72,0.00,,---,0.00,VWS V14.00,2013-07-16 23:11:00,
2013-07-16 18:12:00,62.9,53.4,29.93,North,10,0.0,7.0,71,0.00,,---,0.00,VWS V14.00,2013-07-16 23:12:00,
2013-07-16 18:16:00,62.9,53.8,29.92,NNE,14,5.0,7.0,72,0.00,,---,0.00,VWS V14.00,2013-07-16 23:16:00,
2013-07-16 18:17:00,62.9,53.8,29.92,NNE,14,4.0,7.0,72,0.00,,---,0.00,VWS V14.00,2013-07-16 23:17:00,
2013-07-16 18:21:00,62.9,53.8,29.92,NNE,13,6.0,7.0,72,0.00,,---,0.00,VWS V14.00,2013-07-16 23:21:00,
2013-07-16 18:22:00,62.9,53.8,29.92,NNE,13,1.0,7.0,72,0.00,,---,0.00,VWS V14.00,2013-07-16 23:22:00,
2013-07-16 18:26:00,62.9,53.4,29.92,NNE,13,0.0,7.0,71,0.00,,---,0.00,VWS V14.00,2013-07-16 23:26:00,
2013-07-16 18:27:00,62.9,53.8,29.92,NNE,13,0.0,7.0,72,0.00,,---,0.00,VWS V14.00,2013-07-16 23:27:00,
2013-07-16 18:31:00,62.9,54.1,29.92,NNE,13,0.0,0.0,73,0.00,,---,0.00,VWS V14.00,2013-07-16 23:31:00,
2013-07-16 18:32:00,62.7,53.9,29.92,NNE,13,0.0,0.0,73,0.00,,---,0.00,VWS V14.00,2013-07-16 23:32:00,
2013-07-16 18:33:00,62.7,53.9,29.92,NNE,14,4.0,4.0,73,0.00,,---,0.00,VWS V14.00,2013-07-16 23:33:00,
2013-07-16 18:36:00,62.4,54.0,29.92,NNE,14,2.0,5.0,74,0.00,,---,0.00,VWS V14.00,2013-07-16 23:36:00,
2013-07-16 18:37:00,62.4,54.0,29.92,NNE,14,0.0,5.0,74,0.00,,---,0.00,VWS V14.00,2013-07-16 23:37:00,
2013-07-16 18:38:00,62.4,54.0,29.92,NNE,14,0.0,5.0,74,0.00,,---,0.00,VWS V14.00,2013-07-16 23:38:00,
2013-07-16 18:41:00,62.3,54.3,29.92,NNE,14,0.0,5.0,75,0.00,,---,0.00,VWS V14.00,2013-07-16 23:41:00,
2013-07-16 18:42:00,62.3,54.3,29.92,NNE,14,0.0,5.0,75,0.00,,---,0.00,VWS V14.00,2013-07-16 23:42:00,
2013-07-16 18:43:00,62.3,54.3,29.92,NNE,14,0.0,5.0,75,0.00,,---,0.00,VWS V14.00,2013-07-16 23:43:00,
2013-07-16 18:47:00,62.1,54.8,29.93,NNE,14,0.0,5.0,77,0.00,,---,0.00,VWS V14.00,2013-07-16 23:47:00,
2013-07-16 18:48:00,62.1,54.8,29.93,NNE,14,0.0,5.0,77,0.01,,---,0.01,VWS V14.00,2013-07-16 23:48:00,
2013-07-16 18:49:00,62.1,54.8,29.93,NNE,14,0.0,5.0,77,0.01,,---,0.01,VWS V14.00,2013-07-16 23:49:00,
2013-07-16 18:52:00,61.8,54.5,29.93,NNE,14,0.0,5.0,77,0.01,,---,0.01,VWS V14.00,2013-07-16 23:52:00,
2013-07-16 18:53:00,61.8,54.5,29.93,NNE,14,0.0,5.0,77,0.01,,---,0.01,VWS V14.00,2013-07-16 23:53:00,
2013-07-16 18:54:00,61.8,54.5,29.93,NNE,14,0.0,5.0,77,0.01,,---,0.01,VWS V14.00,2013-07-16 23:54:00,
2013-07-16 18:57:00,61.6,55.0,29.93,NNE,14,0.0,5.0,79,0.01,,---,0.01,VWS V14.00,2013-07-16 23:57:00,
2013-07-16 18:58:00,61.6,55.0,29.93,NNE,14,0.0,5.0,79,0.01,,---,0.01,VWS V14.00,2013-07-16 23:58:00,
2013-07-16 18:59:00,61.6,55.0,29.93,NNE,14,0.0,0.0,79,0.01,,---,0.01,VWS V14.00,2013-07-16 23:59:00,
2013-07-16 19:02:00,61.5,55.3,29.93,NNE,14,0.0,0.0,80,0.01,,---,0.01,VWS V14.00,2013-07-17 00:02:00,
2013-07-16 19:03:00,61.5,55.3,29.93,NNE,14,0.0,0.0,80,0.01,,---,0.01,VWS V14.00,2013-07-17 00:03:00,
2013-07-16 19:04:00,61.3,54.7,29.93,NNE,14,0.0,0.0,79,0.01,,---,0.01,VWS V14.00,2013-07-17 00:04:00,
2013-07-16 19:08:00,61.3,55.1,29.93,NNE,14,0.0,0.0,80,0.01,,---,0.01,VWS V14.00,2013-07-17 00:08:00,
2013-07-16 19:09:00,61.2,55.3,29.93,NNE,14,0.0,0.0,81,0.01,,---,0.01,VWS V14.00,2013-07-17 00:09:00,
2013-07-16 19:13:00,61.2,55.3,29.93,NNE,14,0.0,0.0,81,0.01,,---,0.01,VWS V14.00,2013-07-17 00:13:00,
2013-07-16 19:14:00,61.2,55.3,29.93,NNE,14,0.0,0.0,81,0.01,,---,0.01,VWS V14.00,2013-07-17 00:14:00,
2013-07-16 19:18:00,61.0,55.5,29.93,NNE,14,0.0,0.0,82,0.01,,---,0.01,VWS V14.00,2013-07-17 00:18:00,
2013-07-16 19:19:00,61.0,55.5,29.93,NNE,14,0.0,0.0,82,0.01,,---,0.01,VWS V14.00,2013-07-17 00:19:00,
2013-07-16 19:23:00,60.9,55.7,29.93,NNE,14,0.0,0.0,83,0.01,,---,0.01,VWS V14.00,2013-07-17 00:23:00,
2013-07-16 19:24:00,60.9,55.7,29.93,NNE,14,0.0,0.0,83,0.01,,---,0.01,VWS V14.00,2013-07-17 00:24:00,
2013-07-16 19:28:00,60.9,55.7,29.93,NNE,14,0.0,0.0,83,0.01,,---,0.01,VWS V14.00,2013-07-17 00:28:00,
2013-07-16 19:29:00,60.9,55.7,29.93,NNE,14,0.0,0.0,83,0.01,,---,0.01,VWS V14.00,2013-07-17 00:29:00,
2013-07-16 19:30:00,60.9,55.7,29.93,NNE,14,0.0,0.0,83,0.02,,---,0.02,VWS V14.00,2013-07-17 00:30:00,
2013-07-16 19:33:00,60.9,55.7,29.93,NNE,14,0.0,0.0,83,0.02,,---,0.02,VWS V14.00,2013-07-17 00:33:00,
2013-07-16 19:34:00,60.9,55.7,29.93,NNE,14,0.0,0.0,83,0.02,,---,0.02,VWS V14.00,2013-07-17 00:34:00,
2013-07-16 19:35:00,60.9,55.7,29.93,NNE,14,0.0,0.0,83,0.02,,---,0.02,VWS V14.00,2013-07-17 00:35:00,
2013-07-16 19:38:00,60.9,56.0,29.93,NNE,14,0.0,0.0,84,0.02,,---,0.02,VWS V14.00,2013-07-17 00:38:00,
2013-07-16 19:39:00,60.9,56.0,29.93,NNE,14,0.0,0.0,84,0.02,,---,0.02,VWS V14.00,2013-07-17 00:39:00,
2013-07-16 19:40:00,60.9,56.0,29.93,NNE,14,0.0,0.0,84,0.02,,---,0.02,VWS V14.00,2013-07-17 00:40:00,
2013-07-16 19:44:00,60.9,56.0,29.93,NNE,14,0.0,0.0,84,0.02,,---,0.02,VWS V14.00,2013-07-17 00:44:00,
2013-07-16 19:45:00,60.9,56.0,29.93,NNE,14,0.0,0.0,84,0.02,,---,0.02,VWS V14.00,2013-07-17 00:45:00,
2013-07-16 19:46:00,60.9,56.0,29.93,NNE,14,0.0,0.0,84,0.02,,---,0.02,VWS V14.00,2013-07-17 00:46:00,
2013-07-16 19:49:00,60.9,56.0,29.93,NNE,14,0.0,0.0,84,0.02,,---,0.02,VWS V14.00,2013-07-17 00:49:00,
2013-07-16 19:50:00,60.9,56.0,29.93,NNE,14,0.0,0.0,84,0.02,,---,0.02,VWS V14.00,2013-07-17 00:50:00,
2013-07-16 19:51:00,60.9,56.0,29.93,NNE,14,0.0,0.0,84,0.02,,---,0.02,VWS V14.00,2013-07-17 00:51:00,
2013-07-16 19:54:00,60.9,56.0,29.93,NNE,14,0.0,0.0,84,0.02,,---,0.02,VWS V14.00,2013-07-17 00:54:00,
2013-07-16 19:56:00,60.9,56.0,29.93,NNE,14,0.0,0.0,84,0.02,,---,0.02,VWS V14.00,2013-07-17 00:56:00,
2013-07-16 19:59:00,60.9,56.0,29.94,NNE,14,0.0,0.0,84,0.02,,---,0.02,VWS V14.00,2013-07-17 00:59:00,
2013-07-16 20:01:00,60.9,56.0,29.94,NNE,14,0.0,0.0,84,0.01,,---,0.02,VWS V14.00,2013-07-17 01:01:00,
2013-07-16 20:04:00,60.9,56.0,29.94,NNE,14,0.0,0.0,84,0.01,,---,0.02,VWS V14.00,2013-07-17 01:04:00,
2013-07-16 20:05:00,60.9,56.0,29.94,NNE,14,0.0,0.0,84,0.01,,---,0.02,VWS V14.00,2013-07-17 01:05:00,
2013-07-16 20:06:00,60.9,56.0,29.94,NNE,14,0.0,0.0,84,0.01,,---,0.02,VWS V14.00,2013-07-17 01:06:00,
2013-07-16 20:09:00,60.9,56.0,29.94,NNE,14,0.0,0.0,84,0.01,,---,0.02,VWS V14.00,2013-07-17 01:09:00,
2013-07-16 20:10:00,60.9,56.0,29.94,NNE,14,0.0,0.0,84,0.01,,---,0.02,VWS V14.00,2013-07-17 01:10:00,
2013-07-16 20:11:00,60.9,56.0,29.94,NNE,14,0.0,0.0,84,0.01,,---,0.02,VWS V14.00,2013-07-17 01:11:00,
2013-07-16 20:12:00,60.9,56.0,29.94,NNE,14,0.0,0.0,84,0.01,,---,0.02,VWS V14.00,2013-07-17 01:12:00,
2013-07-16 20:14:00,60.9,56.0,29.93,NNE,14,0.0,0.0,84,0.01,,---,0.02,VWS V14.00,2013-07-17 01:14:00,
2013-07-16 20:15:00,60.9,56.0,29.93,NNE,14,0.0,0.0,84,0.01,,---,0.02,VWS V14.00,2013-07-17 01:15:00,
2013-07-16 20:17:00,60.9,56.0,29.93,NNE,14,0.0,0.0,84,0.01,,---,0.02,VWS V14.00,2013-07-17 01:17:00,
2013-07-16 20:19:00,60.7,56.2,29.93,NNE,14,0.0,0.0,85,0.01,,---,0.02,VWS V14.00,2013-07-17 01:19:00,
2013-07-16 20:20:00,60.7,56.2,29.93,NNE,14,0.0,0.0,85,0.01,,---,0.02,VWS V14.00,2013-07-17 01:20:00,
2013-07-16 20:21:00,60.7,56.2,29.93,NNE,14,0.0,0.0,85,0.01,,---,0.02,VWS V14.00,2013-07-17 01:21:00,
2013-07-16 20:22:00,60.7,56.2,29.93,NNE,14,0.0,0.0,85,0.01,,---,0.02,VWS V14.00,2013-07-17 01:22:00,
2013-07-16 20:23:00,60.7,56.2,29.93,NNE,14,0.0,0.0,85,0.01,,---,0.02,VWS V14.00,2013-07-17 01:23:00,
2013-07-16 20:24:00,60.7,56.2,29.93,NNE,14,0.0,0.0,85,0.01,,---,0.02,VWS V14.00,2013-07-17 01:24:00,
2013-07-16 20:25:00,60.7,56.2,29.93,NNE,14,0.0,0.0,85,0.01,,---,0.02,VWS V14.00,2013-07-17 01:25:00,
2013-07-16 20:26:00,60.7,56.2,29.93,NNE,14,0.0,0.0,85,0.01,,---,0.02,VWS V14.00,2013-07-17 01:26:00,
2013-07-16 20:28:00,60.7,56.2,29.93,NNE,14,0.0,0.0,85,0.01,,---,0.02,VWS V14.00,2013-07-17 01:28:00,
2013-07-16 20:29:00,60.7,56.2,29.93,NNE,14,0.0,0.0,85,0.00,,---,0.02,VWS V14.00,2013-07-17 01:29:00,
2013-07-16 20:30:00,60.5,56.0,29.93,NNE,14,0.0,0.0,85,0.00,,---,0.02,VWS V14.00,2013-07-17 01:30:00,
2013-07-16 20:32:00,60.7,56.2,29.93,NNE,14,0.0,0.0,85,0.00,,---,0.02,VWS V14.00,2013-07-17 01:32:00,
2013-07-16 20:33:00,60.7,56.2,29.93,NNE,14,0.0,0.0,85,0.00,,---,0.02,VWS V14.00,2013-07-17 01:33:00,
2013-07-16 20:35:00,60.5,56.0,29.93,NNE,14,0.0,0.0,85,0.00,,---,0.02,VWS V14.00,2013-07-17 01:35:00,
2013-07-16 20:37:00,60.5,56.3,29.93,NNE,14,0.0,0.0,86,0.00,,---,0.02,VWS V14.00,2013-07-17 01:37:00,
2013-07-16 20:38:00,60.7,56.5,29.93,NNE,14,0.0,0.0,86,0.00,,---,0.02,VWS V14.00,2013-07-17 01:38:00,
2013-07-16 20:40:00,60.7,56.5,29.93,NNE,14,0.0,0.0,86,0.00,,---,0.02,VWS V14.00,2013-07-17 01:40:00,
2013-07-16 20:41:00,60.7,56.5,29.93,NNE,14,0.0,0.0,86,0.00,,---,0.02,VWS V14.00,2013-07-17 01:41:00,
2013-07-16 20:42:00,60.7,56.5,29.93,NNE,14,0.0,0.0,86,0.00,,---,0.02,VWS V14.00,2013-07-17 01:42:00,
2013-07-16 20:43:00,60.7,56.5,29.93,NNE,14,0.0,0.0,86,0.00,,---,0.02,VWS V14.00,2013-07-17 01:43:00,
2013-07-16 20:45:00,60.7,56.5,29.94,NNE,14,0.0,0.0,86,0.00,,---,0.02,VWS V14.00,2013-07-17 01:45:00,
2013-07-16 20:46:00,60.7,56.5,29.94,NNE,14,0.0,0.0,86,0.00,,---,0.02,VWS V14.00,2013-07-17 01:46:00,
2013-07-16 20:47:00,60.7,56.5,29.94,NNE,14,0.0,0.0,86,0.00,,---,0.02,VWS V14.00,2013-07-17 01:47:00,
2013-07-16 20:48:00,60.7,56.5,29.94,NNE,14,0.0,0.0,86,0.00,,---,0.02,VWS V14.00,2013-07-17 01:48:00,
2013-07-16 20:50:00,60.5,56.3,29.94,NNE,14,0.0,0.0,86,0.00,,---,0.02,VWS V14.00,2013-07-17 01:50:00,
2013-07-16 20:51:00,60.5,56.3,29.94,NNE,14,0.0,0.0,86,0.00,,---,0.02,VWS V14.00,2013-07-17 01:51:00,
2013-07-16 20:52:00,60.5,56.3,29.94,NNE,14,0.0,0.0,86,0.00,,---,0.02,VWS V14.00,2013-07-17 01:52:00,
2013-07-16 20:53:00,60.5,56.3,29.94,NNE,14,0.0,0.0,86,0.00,,---,0.02,VWS V14.00,2013-07-17 01:53:00,
2013-07-16 20:54:00,60.5,56.3,29.94,NNE,14,0.0,0.0,86,0.00,,---,0.02,VWS V14.00,2013-07-17 01:54:00,
2013-07-16 20:55:00,60.5,56.0,29.94,NNE,14,0.0,0.0,85,0.00,,---,0.02,VWS V14.00,2013-07-17 01:55:00,
2013-07-16 20:56:00,60.5,56.0,29.94,NNE,14,0.0,0.0,85,0.00,,---,0.02,VWS V14.00,2013-07-17 01:56:00,
2013-07-16 20:57:00,60.5,56.3,29.94,NNE,14,0.0,0.0,86,0.00,,---,0.02,VWS V14.00,2013-07-17 01:57:00,
2013-07-16 20:58:00,60.5,56.3,29.94,NNE,14,0.0,0.0,86,0.00,,---,0.02,VWS V14.00,2013-07-17 01:58:00,
2013-07-16 20:59:00,60.5,56.0,29.95,NNE,14,0.0,0.0,85,0.00,,---,0.02,VWS V14.00,2013-07-17 01:59:00,
2013-07-16 21:00:00,60.5,56.0,29.95,NNE,14,0.0,0.0,85,0.00,,---,0.02,VWS V14.00,2013-07-17 02:00:00,
2013-07-16 21:01:00,60.5,56.0,29.95,NNE,14,0.0,0.0,85,0.00,,---,0.02,VWS V14.00,2013-07-17 02:01:00,
2013-07-16 21:02:00,60.5,56.0,29.95,NNE,14,0.0,0.0,85,0.00,,---,0.02,VWS V14.00,2013-07-17 02:02:00,
2013-07-16 21:03:00,60.5,56.0,29.95,NNE,14,0.0,0.0,85,0.00,,---,0.02,VWS V14.00,2013-07-17 02:03:00,
2013-07-16 21:04:00,60.5,56.0,29.95,NNE,14,0.0,0.0,85,0.00,,---,0.02,VWS V14.00,2013-07-17 02:04:00,
2013-07-16 21:05:00,60.5,56.0,29.95,NNE,14,0.0,0.0,85,0.00,,---,0.02,VWS V14.00,2013-07-17 02:05:00,
2013-07-16 21:06:00,60.5,56.0,29.95,NNE,14,0.0,0.0,85,0.00,,---,0.02,VWS V14.00,2013-07-17 02:06:00,
2013-07-16 21:08:00,60.5,56.0,29.95,NNE,14,0.0,0.0,85,0.00,,---,0.02,VWS V14.00,2013-07-17 02:08:00,
2013-07-16 21:09:00,60.5,56.0,29.95,NNE,14,0.0,0.0,85,0.00,,---,0.02,VWS V14.00,2013-07-17 02:09:00,
2013-07-16 21:10:00,60.5,56.0,29.95,NNE,14,0.0,0.0,85,0.00,,---,0.02,VWS V14.00,2013-07-17 02:10:00,
2013-07-16 21:12:00,60.5,56.0,29.95,NNE,14,0.0,0.0,85,0.00,,---,0.02,VWS V14.00,2013-07-17 02:12:00,
2013-07-16 21:13:00,60.5,56.0,29.95,NNE,14,0.0,0.0,85,0.00,,---,0.02,VWS V14.00,2013-07-17 02:13:00,
2013-07-16 21:15:00,60.5,56.0,29.93,NNE,14,0.0,0.0,85,0.00,,---,0.02,VWS V14.00,2013-07-17 02:15:00,
2013-07-16 21:17:00,60.4,55.9,29.93,NNE,14,0.0,0.0,85,0.00,,---,0.02,VWS V14.00,2013-07-17 02:17:00,
2013-07-16 21:18:00,60.4,55.9,29.93,NNE,14,0.0,0.0,85,0.00,,---,0.02,VWS V14.00,2013-07-17 02:18:00,
2013-07-16 21:20:00,60.4,55.9,29.93,NNE,14,0.0,0.0,85,0.01,,---,0.03,VWS V14.00,2013-07-17 02:20:00,
2013-07-16 21:22:00,60.4,55.9,29.93,NNE,14,0.0,0.0,85,0.01,,---,0.03,VWS V14.00,2013-07-17 02:22:00,
2013-07-16 21:23:00,60.4,55.9,29.93,NNE,14,0.0,0.0,85,0.01,,---,0.03,VWS V14.00,2013-07-17 02:23:00,
2013-07-16 21:25:00,60.4,55.9,29.93,NNE,14,0.0,0.0,85,0.01,,---,0.03,VWS V14.00,2013-07-17 02:25:00,
2013-07-16 21:26:00,60.4,55.9,29.93,NNE,14,0.0,0.0,85,0.01,,---,0.03,VWS V14.00,2013-07-17 02:26:00,
2013-07-16 21:27:00,60.5,56.0,29.93,NNE,14,0.0,0.0,85,0.01,,---,0.03,VWS V14.00,2013-07-17 02:27:00,
2013-07-16 21:28:00,60.4,56.2,29.95,NNE,14,0.0,0.0,86,0.01,,---,0.03,VWS V14.00,2013-07-17 02:28:00,
2013-07-16 21:31:00,60.4,56.2,29.95,NNE,14,0.0,0.0,86,0.01,,---,0.03,VWS V14.00,2013-07-17 02:31:00,
2013-07-16 21:32:00,60.5,56.3,29.95,NNE,14,0.0,0.0,86,0.01,,---,0.03,VWS V14.00,2013-07-17 02:32:00,
2013-07-16 21:33:00,60.5,56.3,29.95,NNE,14,0.0,0.0,86,0.01,,---,0.03,VWS V14.00,2013-07-17 02:33:00,
2013-07-16 21:36:00,60.4,56.2,29.95,NNE,14,0.0,0.0,86,0.01,,---,0.03,VWS V14.00,2013-07-17 02:36:00,
2013-07-16 21:37:00,60.4,56.2,29.95,NNE,14,0.0,0.0,86,0.01,,---,0.03,VWS V14.00,2013-07-17 02:37:00,
2013-07-16 21:39:00,60.4,56.2,29.95,NNE,14,0.0,0.0,86,0.01,,---,0.03,VWS V14.00,2013-07-17 02:39:00,
2013-07-16 21:41:00,60.2,56.0,29.95,NNE,14,0.0,0.0,86,0.01,,---,0.03,VWS V14.00,2013-07-17 02:41:00,
2013-07-16 21:42:00,60.2,56.0,29.95,NNE,14,0.0,0.0,86,0.01,,---,0.03,VWS V14.00,2013-07-17 02:42:00,
2013-07-16 21:44:00,60.2,56.0,29.95,NNE,14,0.0,0.0,86,0.01,,---,0.03,VWS V14.00,2013-07-17 02:44:00,
2013-07-16 21:46:00,60.1,55.9,29.95,NNE,14,0.0,0.0,86,0.01,,---,0.03,VWS V14.00,2013-07-17 02:46:00,
2013-07-16 21:47:00,60.1,55.9,29.95,NNE,14,0.0,0.0,86,0.01,,---,0.03,VWS V14.00,2013-07-17 02:47:00,
2013-07-16 21:49:00,60.1,55.9,29.95,NNE,14,0.0,0.0,86,0.01,,---,0.03,VWS V14.00,2013-07-17 02:49:00,
2013-07-16 21:51:00,60.1,55.9,29.95,NNE,14,0.0,0.0,86,0.01,,---,0.03,VWS V14.00,2013-07-17 02:51:00,
2013-07-16 21:52:00,60.1,55.9,29.95,NNE,14,0.0,0.0,86,0.01,,---,0.03,VWS V14.00,2013-07-17 02:52:00,
2013-07-16 21:53:00,60.1,55.9,29.95,NNE,14,0.0,0.0,86,0.01,,---,0.03,VWS V14.00,2013-07-17 02:53:00,
2013-07-16 21:55:00,60.1,55.9,29.95,NNE,14,0.0,0.0,86,0.02,,---,0.04,VWS V14.00,2013-07-17 02:55:00,
2013-07-16 21:56:00,60.1,55.9,29.95,NNE,14,0.0,0.0,86,0.02,,---,0.04,VWS V14.00,2013-07-17 02:56:00,
2013-07-16 21:57:00,60.1,55.9,29.95,NNE,14,0.0,0.0,86,0.02,,---,0.04,VWS V14.00,2013-07-17 02:57:00,
2013-07-16 21:58:00,60.1,55.9,29.95,NNE,14,0.0,0.0,86,0.02,,---,0.04,VWS V14.00,2013-07-17 02:58:00,
2013-07-16 22:00:00,59.9,56.0,29.95,NNE,14,0.0,0.0,87,0.02,,---,0.04,VWS V14.00,2013-07-17 03:00:00,
2013-07-16 22:02:00,59.8,55.9,29.95,NNE,14,0.0,0.0,87,0.02,,---,0.04,VWS V14.00,2013-07-17 03:02:00,
2013-07-16 22:03:00,59.8,55.6,29.95,NNE,14,0.0,0.0,86,0.02,,---,0.04,VWS V14.00,2013-07-17 03:03:00,
2013-07-16 22:05:00,59.6,55.4,29.95,NNE,14,0.0,0.0,86,0.02,,---,0.04,VWS V14.00,2013-07-17 03:05:00,
2013-07-16 22:07:00,59.5,55.3,29.95,NNE,14,0.0,0.0,86,0.02,,---,0.04,VWS V14.00,2013-07-17 03:07:00,
2013-07-16 22:10:00,59.5,55.3,29.95,NNE,14,0.0,0.0,86,0.02,,---,0.04,VWS V14.00,2013-07-17 03:10:00,
2013-07-16 22:11:00,59.5,55.3,29.95,NNE,14,0.0,0.0,86,0.02,,---,0.04,VWS V14.00,2013-07-17 03:11:00,
2013-07-16 22:15:00,59.5,55.6,29.96,NNE,14,0.0,0.0,87,0.02,,---,0.04,VWS V14.00,2013-07-17 03:15:00,
2013-07-16 22:17:00,59.5,55.6,29.96,NNE,14,0.0,0.0,87,0.02,,---,0.04,VWS V14.00,2013-07-17 03:17:00,